Weather History for KCQW - November, 2012

Change the Weather History Date:

Sunday, November 4, 2012

  Actual Average (KFLO) Record (KFLO)
Temperature  
Mean Temperature 52 °F 59 °F  
Max Temperature 62 °F 71 °F 86 °F (1974)
Min Temperature 41 °F 47 °F 24 °F (1966)
Degree Days  
Heating Degree Days 14 7  
Month to date heating degree days 28  
Since 1 July heating degree days 145  
Cooling Degree Days 0 1  
Month to date cooling degree days 4  
Year to date cooling degree days 2046  
Growing Degree Days 2 (Base 50)    
Moisture  
Dew Point 45 °F    
Average Humidity 81    
Maximum Humidity 100    
Minimum Humidity 55    
Precipitation  
Precipitation 0.12 in 0.09 in 1.44 in (1968)
Month to date precipitation 0.35  
Year to date precipitation 37.58  
Sea Level Pressure  
Sea Level Pressure 29.98 in    
Wind  
Wind Speed 7 mph (NNE)    
Max Wind Speed 18 mph    
Max Gust Speed 23 mph    
Visibility 10 miles    
Events      
T = Trace of Precipitation, MM = Missing Value Source: NWS Daily Summary

Daily Weather History Graph

Daily Weather History Graph

Search for Another Location

Airport or City:

Trip Planner

Search our weather history database for the weather conditions in past years. The results will help you decide how hot, cold, wet, or windy it might be!

Date:

Astronomy

Nov. 04, 2012 Rise Set
Actual Time 6:43 AM EST 5:22 PM EST
Civil Twilight 6:17 AM EST 5:48 PM EST
Nautical Twilight 5:47 AM EST 6:18 PM EST
Astronomical Twilight 5:17 AM EST 6:48 PM EST
Moon 10:01 PM EST (11/4) 11:23 AM EST (11/4)
Length of Visible Light 11h 31m
Length of Day
10h 39m
Waning Gibbous, 72% of the Moon is Illuminated
Nov 4
Waning Gibbous
Nov 6
Last Quarter
Nov 13
New
Nov 20
First Quarter
Nov 28
Full

Hourly Weather History & Observations

Time (EST) Temp. Windchill Dew Point Humidity Pressure Visibility Wind Dir Wind Speed Gust Speed Precip Events Conditions
12:15 AM 44.6 °F 43.1 °F 39.2 °F 81% 30.02 in 10.0 mi East 3.5 mph - N/A   Overcast
12:35 AM 42.8 °F 41.1 °F 39.2 °F 87% 30.02 in 10.0 mi East 3.5 mph - N/A   Overcast
12:55 AM 42.8 °F - 41.0 °F 93% 30.02 in 10.0 mi Calm Calm - N/A   Overcast
1:15 AM 44.6 °F - 39.2 °F 81% 30.02 in 10.0 mi Calm Calm - N/A   Overcast
1:35 AM 42.8 °F 41.1 °F 39.2 °F 87% 30.01 in 10.0 mi ENE 3.5 mph - N/A   Overcast
1:55 AM 41.0 °F 36.4 °F 39.2 °F 93% 30.01 in 10.0 mi NNE 6.9 mph - N/A   Overcast
1:15 AM 42.8 °F 41.1 °F 41.0 °F 93% 30.01 in 10.0 mi NE 3.5 mph - N/A   Overcast
1:35 AM 42.8 °F 40.1 °F 41.0 °F 93% 30.01 in 10.0 mi NE 4.6 mph - N/A   Overcast
1:55 AM 42.8 °F 41.1 °F 41.0 °F 93% 30.01 in 10.0 mi NE 3.5 mph - N/A   Overcast
2:15 AM 42.8 °F 41.1 °F 41.0 °F 93% 30.01 in 10.0 mi ENE 3.5 mph - N/A   Overcast
2:35 AM 44.6 °F 43.1 °F 42.8 °F 93% 30.00 in 10.0 mi ENE 3.5 mph - N/A   Overcast
2:55 AM 44.6 °F 41.4 °F 42.8 °F 93% 30.00 in 10.0 mi NE 5.8 mph - N/A   Overcast
3:15 AM 44.6 °F 40.7 °F 42.8 °F 93% 29.99 in 10.0 mi NE 6.9 mph - N/A   Overcast
3:35 AM 42.8 °F 40.1 °F 42.8 °F 100% 29.98 in 10.0 mi East 4.6 mph - N/A   Overcast
3:55 AM 42.8 °F 36.2 °F 42.8 °F 100% 29.99 in 10.0 mi North 12.7 mph - N/A   Overcast
4:15 AM 42.8 °F 36.6 °F 42.8 °F 100% 29.99 in 10.0 mi NNE 11.5 mph - N/A   Overcast
4:35 AM 42.8 °F 39.3 °F 42.8 °F 100% 29.98 in 10.0 mi ENE 5.8 mph - N/A   Overcast
4:55 AM 42.8 °F 41.1 °F 41.0 °F 93% 29.98 in 10.0 mi East 3.5 mph - N/A   Overcast
5:15 AM 42.8 °F 41.1 °F 41.0 °F 93% 29.98 in 10.0 mi ENE 3.5 mph - N/A   Overcast
5:35 AM 42.8 °F 41.1 °F 41.0 °F 93% 29.97 in 10.0 mi NE 3.5 mph - N/A   Overcast
5:55 AM 42.8 °F 38.0 °F 42.8 °F 100% 29.98 in 10.0 mi NNE 8.1 mph - N/A   Overcast
6:15 AM 44.6 °F 43.1 °F 42.8 °F 93% 29.97 in 10.0 mi ESE 3.5 mph - N/A   Overcast
6:35 AM 44.6 °F 42.2 °F 42.8 °F 93% 29.97 in 10.0 mi NE 4.6 mph - N/A   Overcast
6:55 AM 44.6 °F 41.4 °F 44.6 °F 100% 29.98 in 10.0 mi NE 5.8 mph - N/A   Overcast
7:15 AM 46.4 °F 44.3 °F 44.6 °F 93% 29.99 in 10.0 mi NE 4.6 mph - N/A   Overcast
7:35 AM 46.4 °F 43.5 °F 44.6 °F 93% 30.00 in 10.0 mi North 5.8 mph - N/A   Overcast
7:55 AM 46.4 °F 44.3 °F 44.6 °F 93% 29.99 in 10.0 mi NE 4.6 mph - N/A   Overcast
8:15 AM 46.4 °F 42.4 °F 46.4 °F 100% 30.00 in 10.0 mi North 8.1 mph - N/A   Overcast
8:35 AM 48.2 °F - 46.4 °F 93% 30.00 in 10.0 mi North 12.7 mph - N/A   Overcast
8:55 AM 50.0 °F - 46.4 °F 87% 30.00 in 10.0 mi NNE 13.8 mph - N/A   Overcast
9:15 AM 51.8 °F - 46.4 °F 82% 30.00 in 10.0 mi North 8.1 mph - N/A   Overcast
9:35 AM 51.8 °F - 46.4 °F 82% 29.99 in 10.0 mi North 11.5 mph - N/A   Overcast
9:55 AM 53.6 °F - 48.2 °F 82% 29.99 in 10.0 mi NNE 12.7 mph 17.3 mph N/A   Overcast
10:15 AM 55.4 °F - 48.2 °F 77% 29.99 in 10.0 mi NNE 13.8 mph 20.7 mph N/A   Overcast
10:35 AM 57.2 °F - 48.2 °F 72% 29.99 in 10.0 mi North 11.5 mph 19.6 mph N/A   Overcast
10:55 AM 57.2 °F - 48.2 °F 72% 29.99 in 10.0 mi North 9.2 mph 17.3 mph N/A   Overcast
11:15 AM 57.2 °F - 48.2 °F 72% 29.99 in 10.0 mi North 8.1 mph - N/A   Overcast
11:35 AM 60.8 °F - 48.2 °F 63% 29.98 in 10.0 mi North 9.2 mph - N/A   Overcast
11:55 AM 60.8 °F - 46.4 °F 59% 29.98 in 10.0 mi NNW 11.5 mph 16.1 mph N/A   Overcast
12:15 PM 60.8 °F - 46.4 °F 59% 29.97 in 10.0 mi NE 6.9 mph 23.0 mph N/A   Overcast
12:35 PM 62.6 °F - 46.4 °F 55% 29.96 in 10.0 mi NNE 13.8 mph 19.6 mph N/A   Overcast
12:55 PM 62.6 °F - 46.4 °F 55% 29.96 in 10.0 mi NNW 6.9 mph - N/A   Overcast
1:15 PM 62.6 °F - 46.4 °F 55% 29.95 in 10.0 mi North 10.4 mph 17.3 mph N/A   Overcast
1:35 PM 62.6 °F - 46.4 °F 55% 29.95 in 10.0 mi NE 9.2 mph - N/A   Overcast
1:55 PM 62.6 °F - 46.4 °F 55% 29.95 in 10.0 mi NNE 5.8 mph 17.3 mph N/A   Overcast
2:15 PM 62.6 °F - 46.4 °F 55% 29.95 in 10.0 mi NE 6.9 mph - N/A   Overcast
2:35 PM 62.6 °F - 46.4 °F 55% 29.95 in 10.0 mi North 8.1 mph - N/A   Overcast
2:55 PM 62.6 °F - 46.4 °F 55% 29.95 in 10.0 mi North 4.6 mph - N/A   Overcast
3:15 PM 62.6 °F - 46.4 °F 55% 29.95 in 10.0 mi NE 9.2 mph - N/A   Overcast
3:35 PM 62.6 °F - 46.4 °F 55% 29.95 in 10.0 mi North 10.4 mph 16.1 mph N/A   Overcast
3:55 PM 62.6 °F - 46.4 °F 55% 29.95 in 10.0 mi NNE 12.7 mph 18.4 mph N/A   Overcast
4:15 PM 60.8 °F - 46.4 °F 59% 29.94 in 10.0 mi NNE 13.8 mph - N/A   Overcast
4:35 PM 60.8 °F - 46.4 °F 59% 29.94 in 10.0 mi North 16.1 mph 20.7 mph N/A   Overcast
4:55 PM 59.0 °F - 46.4 °F 63% 29.94 in 10.0 mi NNE 10.4 mph - N/A   Overcast
5:15 PM 57.2 °F - 46.4 °F 67% 29.94 in 10.0 mi NNE 11.5 mph - N/A   Overcast
5:35 PM 57.2 °F - 46.4 °F 67% 29.94 in 10.0 mi NNE 13.8 mph 18.4 mph N/A   Overcast
5:55 PM 57.2 °F - 46.4 °F 67% 29.94 in 10.0 mi NNE 13.8 mph - N/A   Overcast
6:15 PM 55.4 °F - 46.4 °F 72% 29.93 in 10.0 mi NE 16.1 mph 21.9 mph N/A   Overcast
6:35 PM 55.4 °F - 46.4 °F 72% 29.94 in 10.0 mi NE 12.7 mph - N/A   Overcast
6:55 PM 55.4 °F - 46.4 °F 72% 29.95 in 10.0 mi NE 11.5 mph 16.1 mph N/A   Overcast
7:15 PM 55.4 °F - 44.6 °F 67% 29.98 in 10.0 mi NW 18.4 mph 21.9 mph N/A   Light Drizzle
7:35 PM 51.8 °F - 50.0 °F 94% 29.99 in 8.0 mi Calm Calm - 0.12 in   Light Drizzle
7:55 PM 51.8 °F - 51.8 °F 100% 29.99 in 10.0 mi NNE 13.8 mph - 0.12 in   Overcast
8:15 PM 51.8 °F - 50.0 °F 94% 29.98 in 9.0 mi ENE 11.5 mph - N/A   Overcast
8:35 PM 51.8 °F - 50.0 °F 94% 29.98 in 7.0 mi ENE 11.5 mph - N/A   Overcast
8:55 PM 50.0 °F - 48.2 °F 94% 29.98 in 10.0 mi NE 10.4 mph - N/A   Overcast
9:15 PM 50.0 °F - 48.2 °F 94% 29.99 in 10.0 mi NE 6.9 mph - N/A   Overcast
9:35 PM 50.0 °F - 48.2 °F 94% 29.99 in 5.0 mi NE 9.2 mph - N/A   Overcast
9:55 PM 50.0 °F - 48.2 °F 94% 29.99 in 4.0 mi ENE 6.9 mph - N/A   Overcast
10:15 PM 50.0 °F - 48.2 °F 94% 29.99 in 6.0 mi ENE 10.4 mph - N/A   Overcast
10:35 PM 50.0 °F - 48.2 °F 94% 29.98 in 10.0 mi NE 15.0 mph 20.7 mph N/A   Overcast
10:55 PM 48.2 °F - 46.4 °F 93% 29.99 in 9.0 mi NNE 12.7 mph 17.3 mph N/A   Overcast